Theta_e
291 291 292 292 292 293 294 296 297 301 301 301 300 301 301 302 304 305 307 308 307 308 312 320 323 322 321 320 319 318 316 314 315 312 309 309 309 308 308 309 308 307 308
290 291 291 291 291 292 294 296 298 300 301 301 301 302 302 303 304 306 307 310 308 309 312 321 321 321 321 319 319 318 315 315 315 312 311 306 306 306 306 307 306 306 306
289 289 290 289 290 292 293 297 299 300 300 300 301 303 306 304 303 304 306 310 312 312 315 321 321 320 321 319 318 318 315 313 315 314 309 304 304 304 305 304 304 304 304
289 289 289 289 290 292 293 296 298 299 300 300 300 300 305 305 308 309 310 310 312 314 321 321 320 320 320 319 318 318 317 316 313 313 311 310 307 301 299 303 302 303 303
288 288 289 290 291 292 292 294 299 299 299 299 299 301 304 306 311 314 312 309 315 319 321 321 320 320 319 319 319 318 318 317 315 312 307 307 306 306 303 297 299 303 302
288 289 289 290 290 291 292 294 297 298 298 298 298 299 301 304 308 310 311 313 316 319 320 320 320 320 319 319 319 318 316 313 312 311 309 307 306 305 304 299 300 297 298
287 287 287 287 289 290 291 294 297 296 297 297 297 298 300 302 304 306 307 308 309 310 312 313 314 314 316 315 314 311 310 309 308 307 305 305 304 307 306 303 300 297 297
287 286 287 287 289 290 291 294 296 295 296 296 297 297 299 300 301 303 305 305 305 306 308 308 308 309 309 309 308 307 305 304 302 300 300 299 298 301 305 304 300 298 300
285 286 286 287 289 290 290 292 295 295 296 296 297 296 297 298 299 300 301 302 303 303 303 303 304 304 303 303 302 301 300 300 299 297 296 295 294 294 294 296 300 298 295
285 285 285 287 289 289 290 291 295 295 295 295 295 295 295 297 298 298 298 299 300 301 301 301 301 301 301 301 300 298 298 296 295 294 293 292 291 291 291 290 290 292 293
284 284 285 287 289 289 289 290 294 295 294 294 294 294 293 294 295 295 295 296 297 298 297 297 297 296 296 296 295 294 293 292 292 292 291 290 290 289 289 289 288 288 288
284 284 285 286 287 288 289 289 293 294 294 294 293 293 293 293 292 292 292 293 292 292 292 292 292 291 291 292 292 291 291 290 289 289 289 288 289 288 288 288 287 287 286
283 284 284 285 286 287 288 289 292 292 294 294 293 292 292 292 291 291 291 290 290 290 290 291 289 289 289 289 289 289 288 287 287 287 287 286 287 285 286 286 286 286 287
285 284 283 285 286 287 288 288 289 290 292 292 291 290 289 288 288 289 289 288 288 288 288 289 289 288 288 288 287 287 286 286 285 286 285 285 285 285 284 284 284 284 283
284 285 284 285 285 286 287 288 288 289 289 288 287 287 287 287 287 287 287 287 287 287 287 288 287 287 287 287 286 286 285 285 284 284 285 285 284 286 286 284 282 283 282
286 286 286 286 286 287 287 288 288 288 288 287 286 286 286 286 285 285 286 286 285 285 285 285 286 286 287 288 289 286 285 284 284 283 283 284 284 287 289 288 287 285 282
287 286 286 286 287 287 288 288 288 288 287 286 286 286 285 284 284 284 284 284 283 284 283 284 284 285 286 290 289 287 284 283 283 283 283 284 284 283 284 287 287 286 287
288 288 288 287 288 288 288 289 288 288 286 286 285 285 284 283 283 283 283 282 282 282 282 282 283 283 287 289 288 286 283 283 283 283 282 283 282 283 283 282 282 282 282
291 290 290 289 288 287 288 288 287 287 286 285 285 284 284 283 282 282 282 282 282 281 281 282 282 283 284 289 288 285 282 282 281 282 281 282 282 287 286 282 281 281 281
293 291 290 290 288 287 288 288 287 286 286 286 286 284 283 282 281 281 281 282 281 282 282 282 281 281 283 289 288 284 282 281 281 281 282 283 283 286 285 281 280 279 279
292 290 290 289 288 288 288 287 287 286 287 286 285 284 283 283 282 281 281 281 282 282 281 281 280 281 282 285 288 286 282 281 280 280 280 282 286 286 285 283 280 280 281
288 289 289 288 288 288 288 287 286 288 286 285 285 284 282 283 282 280 280 280 282 280 279 279 278 278 281 283 288 287 285 284 281 280 280 281 286 285 284 282 283 282 281
286 287 288 286 287 287 288 287 287 286 285 284 283 282 281 281 281 281 280 279 280 280 279 279 278 277 279 280 287 287 287 286 281 281 283 284 286 285 283 283 282 280 279
286 285 285 285 285 286 287 288 287 286 285 285 283 281 281 280 280 282 282 281 280 280 280 279 278 277 277 278 280 282 282 283 280 284 282 284 283 283 280 275 279 275 274
285 285 286 285 286 286 286 286 284 285 285 285 283 282 282 281 280 281 281 282 282 283 281 281 281 278 278 280 282 282 279 277 281 278 275 273 272 271 269 268 267 268 268
284 284 285 285 285 285 286 284 285 286 286 284 283 282 282 280 281 280 278 284 284 285 286 286 283 282 284 285 285 285 285 285 284 279 278 278 276 274 273 271 269 266 267
Wind_Speed
4 2 4 6 7 7 9 11 11 12 11 10 9 7 5 6 6 6 9 9 6 6 5 7 11 10 10 11 11 10 8 3 6 7 7 7 7 8 7 6 6 8 8
4 2 5 6 6 7 10 12 11 13 11 9 9 5 5 5 6 6 7 7 5 5 6 8 11 13 8 10 11 11 9 4 7 6 5 4 3 7 6 5 6 9 6
5 2 5 5 7 8 11 12 12 12 12 13 9 6 4 4 4 5 6 6 5 6 7 10 10 10 9 9 10 10 9 10 5 6 4 3 3 4 3 6 6 6 6
3 2 4 6 7 7 9 11 10 12 11 14 11 12 7 6 3 4 3 4 6 5 7 9 9 10 8 9 9 8 8 6 8 3 3 4 6 4 5 4 4 6 7
5 4 5 4 5 6 8 9 10 11 12 12 11 9 10 8 6 2 4 3 4 5 8 9 9 8 6 8 10 9 9 4 5 4 3 4 4 5 5 5 5 6 7
6 5 5 5 5 6 8 9 11 11 12 12 13 14 12 11 7 7 6 4 4 5 6 7 7 8 7 7 8 6 7 6 7 5 4 3 3 6 5 6 6 9 5
6 5 5 4 6 7 8 9 11 12 12 12 13 14 12 11 10 10 8 10 8 7 8 10 8 6 5 7 9 11 11 9 8 9 7 6 5 2 8 8 6 5 3
6 6 6 1 4 6 7 9 11 11 11 12 11 12 12 7 7 10 9 7 8 7 12 12 12 13 13 12 13 10 11 11 11 13 9 7 5 4 5 7 9 5 3
6 7 6 3 2 5 6 7 9 10 11 11 10 13 12 12 10 11 10 8 9 11 11 12 14 14 15 16 15 9 13 11 11 10 9 7 6 6 5 4 3 3 4
6 5 5 5 1 3 3 6 7 8 8 10 11 9 12 12 10 11 13 12 10 12 15 13 15 14 14 13 17 11 11 12 10 7 10 8 6 7 6 5 4 3 4
8 6 5 5 4 3 4 4 5 7 8 9 9 10 11 12 11 12 12 10 12 12 13 13 14 14 13 13 15 12 10 13 12 9 10 8 5 6 6 6 5 5 3
9 8 7 6 5 4 3 3 5 5 5 6 9 10 11 12 14 14 13 12 14 13 13 13 14 14 14 12 12 12 9 12 11 8 10 7 6 9 7 6 7 6 5
9 8 7 7 7 6 4 3 4 3 4 4 7 9 10 10 10 10 11 11 11 12 12 13 14 12 11 12 11 11 12 10 9 8 8 7 8 8 6 6 6 5 4
12 10 7 7 7 7 7 5 5 3 2 4 7 9 7 8 8 8 9 10 10 11 11 12 10 10 10 10 10 11 11 10 9 8 8 7 8 7 6 6 5 4 4
13 13 12 10 8 7 7 6 6 6 3 4 6 6 5 7 6 7 8 9 10 8 8 9 9 8 8 6 9 10 10 10 10 8 9 8 7 10 7 4 4 5 4
16 15 13 12 11 11 10 9 8 7 6 4 6 5 7 6 6 6 7 9 9 8 9 9 7 7 5 11 14 11 9 8 9 9 7 6 6 8 12 12 10 5 3
18 18 18 17 14 13 13 13 11 8 7 7 5 5 5 7 6 6 6 7 7 6 7 7 7 7 6 12 13 12 7 8 7 7 6 6 4 5 6 10 10 10 11
18 19 17 15 14 10 10 9 9 11 9 8 7 6 6 6 6 6 5 6 5 6 5 6 6 6 6 13 13 12 7 6 6 6 5 5 5 4 5 5 5 5 5
19 20 20 19 15 14 13 12 11 10 11 10 9 8 7 7 6 7 7 4 5 5 4 4 5 6 6 11 12 9 6 7 6 5 6 5 6 8 8 5 5 4 3
14 15 17 16 16 14 14 14 13 12 14 13 12 10 8 8 8 6 7 4 4 4 5 5 5 5 5 10 12 9 5 7 4 4 4 6 6 8 7 4 3 3 2
11 13 16 18 20 16 16 16 14 16 14 11 11 10 10 10 7 6 3 5 5 5 5 5 4 4 4 7 12 13 4 5 5 3 2 2 7 7 7 6 4 2 2
8 14 15 15 14 16 18 17 17 15 10 11 11 12 10 8 8 8 5 4 7 6 5 5 3 1 4 6 11 13 9 10 5 6 3 3 8 8 7 5 4 3 2
7 8 13 13 12 15 18 18 17 11 12 12 11 10 9 10 10 11 8 5 6 7 7 6 5 4 3 3 10 11 12 13 4 4 6 9 11 10 7 6 6 4 2
8 7 8 12 14 14 16 18 13 13 13 15 13 9 11 10 9 8 9 8 8 7 7 7 7 5 4 4 3 3 5 9 5 8 5 6 7 8 7 2 5 3 3
5 8 13 12 14 14 16 12 13 15 14 13 12 12 10 11 9 9 10 10 10 10 9 9 8 9 8 10 13 10 6 4 6 5 2 1 2 2 1 1 2 2 2
5 6 8 10 11 12 14 12 14 17 16 13 10 11 10 9 9 9 5 12 9 14 11 9 9 6 4 13 20 19 17 16 16 5 6 7 6 6 5 5 3 2 4
Wind_Direction
173 89 24 9 347 332 328 323 322 331 326 313 308 289 279 283 266 259 256 254 215 228 229 231 153 144 172 169 167 141 143 164 118 106 86 71 68 70 69 76 84 87 79
186 24 15 9 341 327 330 319 333 334 326 312 303 276 282 278 265 263 269 263 216 225 230 180 157 174 159 149 160 168 155 174 162 140 130 132 113 59 60 73 84 83 84
171 37 15 359 343 347 327 322 337 335 329 322 312 309 285 254 252 241 244 237 231 217 245 151 158 165 163 164 170 168 173 162 174 174 143 146 127 118 31 50 68 85 81
137 91 31 4 346 336 319 322 338 339 334 328 325 331 324 289 245 217 207 205 209 189 186 143 156 149 146 161 171 172 171 150 161 116 48 73 131 140 134 57 70 76 75
156 106 52 5 334 342 320 313 343 348 339 340 339 341 336 332 313 224 174 140 198 150 152 148 136 138 152 167 170 169 159 144 141 118 143 70 66 94 126 130 119 82 62
164 117 77 12 341 343 333 324 353 355 346 347 358 350 352 346 11 40 56 62 45 98 126 134 138 149 153 163 164 121 118 106 105 104 85 114 120 139 135 125 125 104 63
173 125 80 11 341 2 341 335 1 359 356 346 15 355 355 1 29 44 48 63 53 51 65 75 77 85 90 108 103 102 91 89 94 96 87 70 66 108 125 131 128 122 155
180 138 121 75 346 12 354 346 3 2 7 353 14 13 7 12 37 52 62 69 84 81 71 80 74 78 84 80 80 94 93 92 85 81 82 82 56 52 108 136 138 137 129
191 158 140 126 355 34 10 354 6 6 16 2 7 33 12 18 35 54 61 59 63 77 82 82 84 83 84 82 85 70 86 87 94 74 78 83 66 60 56 48 95 124 137
197 171 161 146 179 66 30 18 21 10 11 25 18 28 33 22 34 55 57 50 65 81 80 84 86 87 89 92 97 86 80 88 82 85 82 68 66 64 57 76 71 68 127
195 183 190 158 154 101 60 32 28 20 26 30 30 31 43 38 32 52 60 63 65 66 78 83 84 82 83 83 85 87 95 88 86 79 89 78 68 75 62 59 52 54 67
187 180 185 178 159 136 105 60 46 26 30 41 51 44 41 52 50 40 41 55 66 60 63 69 73 72 71 77 88 93 87 93 92 89 86 76 78 69 62 65 62 59 46
176 178 176 198 174 162 153 123 89 27 25 48 63 53 45 50 58 50 47 40 63 70 65 70 69 70 70 76 74 87 84 81 76 73 81 77 82 73 68 66 69 56 62
182 182 184 195 195 172 161 161 134 118 1 68 78 75 66 59 45 46 49 49 49 54 62 69 85 88 92 94 102 98 94 87 78 77 79 77 82 91 89 84 89 86 82
185 189 191 190 201 176 169 169 162 151 134 101 94 95 81 80 76 68 71 67 56 48 57 71 65 63 75 90 90 89 95 101 91 77 74 70 79 92 96 103 94 97 93
196 192 193 188 193 190 181 168 167 167 145 141 125 126 112 92 83 84 83 84 85 76 67 55 56 64 72 99 108 111 107 102 106 99 84 80 91 97 94 94 91 101 112
195 191 193 193 192 194 180 177 173 152 155 151 158 140 123 114 108 108 101 100 94 90 94 96 97 92 92 105 107 106 108 108 107 113 118 99 85 93 98 100 91 73 74
197 197 193 192 194 182 177 172 165 162 159 160 162 156 142 133 130 118 111 109 105 108 102 98 95 103 109 120 118 107 101 104 95 89 91 102 104 102 104 108 115 102 72
199 197 191 190 178 178 174 174 171 170 163 172 169 169 160 153 153 144 140 122 120 114 115 122 118 115 121 130 129 116 109 106 113 124 123 122 127 143 147 138 122 114 76
196 185 184 180 177 179 168 171 183 179 184 178 180 165 162 162 165 165 155 146 140 134 131 130 138 137 144 156 157 146 137 133 136 135 137 145 131 120 109 111 114 85 56
183 170 172 181 183 170 167 182 186 195 192 176 163 169 165 165 164 160 166 145 141 137 138 138 155 167 174 174 173 166 152 154 150 153 165 160 137 131 122 109 103 131 105
172 170 175 181 179 171 170 184 197 194 169 171 175 172 170 163 159 159 163 161 150 148 157 149 165 229 199 196 183 181 171 165 153 180 178 169 157 154 152 147 146 133 148
179 179 175 167 175 177 180 184 200 172 169 168 180 181 170 166 163 165 167 162 172 170 172 178 186 194 196 232 195 189 184 182 179 159 174 179 177 177 179 184 179 173 177
190 166 163 179 180 183 189 194 173 167 174 182 180 173 178 175 173 175 171 172 186 190 186 187 194 190 187 198 212 196 186 184 164 178 185 190 181 174 180 224 197 175 183
210 183 182 191 195 184 191 183 161 165 182 191 183 181 185 182 180 194 188 191 196 193 192 199 190 181 200 208 193 187 185 170 174 134 106 106 145 165 186 241 235 212 208
190 201 208 192 191 191 193 178 168 173 179 187 188 187 182 184 182 182 197 222 212 203 209 200 189 204 208 184 193 197 195 188 178 184 201 213 212 200 201 206 213 211 200